Regional Weather Roundup
Issued by NWS Grand Forks, ND

Home | Current Version | Previous Version | Graphics & Text | Print | Product List | Glossary On
Versions: 1 2 3 4 5 6 7 8 9 10 11 12 13 14 15 16 17 18 19 20 21 22 23 24 25 26 27 28 29 30 31 32 33 34 35 36 37 38 39 40 41 42 43 44 45 46 47 48 49 50
985
ASUS43 KFGF 231431
RWRFGF
PRAIRIE TO PINES  WEATHER ROUNDUP
NATIONAL WEATHER SERVICE EASTERN NORTH DAKOTA/GRAND FORKS ND
900 AM CDT SUN JUL 23 2017

 **SATELLITE DATA USED TO AUGMENT SKY COVER AT AUTOMATED STATIONS**
 *****  WEATHER ACROSS EASTERN NORTH DAKOTA  *****

CITY           SKY/WX    TMP DP  RH WIND       PRES   REMARKS
GRAND FORKS    CLOUDY    63  61  93 N12       30.00R
GRAND FRKS AFB MOSUNNY   65  59  82 N7        30.01R
DEVILS LAKE    FAIR      64  59  83 NW8       30.06R
FARGO          CLOUDY    65  61  87 N9        29.99R
WAHPETON ARPT  CLOUDY    63  57  82 NW10      29.99S
$$

 ***** WEATHER ACROSS CENTRAL AND WESTERN NORTH DAKOTA  *****

CITY           SKY/WX    TMP DP  RH WIND       PRES   REMARKS
BISMARCK       FAIR      66  56  70 NW6       30.09R
MINOT          FAIR      66  55  67 SW3       30.07R
JAMESTOWN      FAIR      66  59  78 NW9       30.04R
MINOT AFB      FAIR      65  58  77 W5        30.06R
GARRISON         N/A     64  55  72 NE3       30.08R
WILLISTON      FAIR      68  57  68 SE3       30.07S
DICKINSON      FAIR      67  56  67 S7        30.08S
HETTINGER      FAIR      68  54  60 SE5       30.12S
$$

 *****  OTHER AIRPORT OBSERVATIONS IN OUR AREA  *****

CITY           SKY/WX    TMP DP  RH WIND       PRES   REMARKS
WALHALLA       NOT AVBL
GRAFTON AIRPOR CLOUDY    63  61  94 N9        30.03R
VALLEY CITY AR PTSUNNY   66  64  94 N12       30.04R
CANDO          NOT AVBL
CAVALIER APRT  FAIR      64  59  82 N8        30.01S
GWINNER        CLOUDY    64  61  88 N9G16     30.02R
ROLLA            N/A     66  55  68 VRB3      30.07S
 ***** THE ABOVE OBSERVATIONS ARE NON NWS ARE NOT QUALITY
       CONTROLLED AND MAY MIS-REPORT RAIN FOR SNOW...
$$

  *****  WEATHER ACROSS NORTHERN MINNESOTA  *****

CITY           SKY/WX    TMP DP  RH WIND       PRES   REMARKS
FLAG ISLAND    FAIR      66  59  77 NE6       29.99R
WARROAD        PTSUNNY   66  63  88 NE9       30.00R
ROSEAU         FAIR      66  61  82 N7        30.00R
HALLOCK        FAIR      64  63  94 N5        30.00R
THF RVR FALLS  PTSUNNY   66  60  81 N9        29.99R
BAUDETTE       PTSUNNY   64  60  87 E6        29.98R
WASKISH        CLOUDY    63  59  88 NE9       29.97R
CROOKSTON      CLOUDY    63  61  94 N5        30.00S
STEPHEN NDAWN    N/A    N/A N/A N/A N7          N/A
GREENBUSH NDAW   N/A     66  63  88 N7          N/A
$$
  *****  WEATHER ACROSS CENTRAL AND WEST MINNESOTA  *****

CITY           SKY/WX    TMP DP  RH WIND       PRES   REMARKS
FOSSTON        CLOUDY    63  61  94 NW7       29.99R
BEMIDJI        CLOUDY    64  58  82 N8        29.96S
PARK RAPIDS    CLOUDY    65  58  78 N10       29.96R
ELBOW LAKE     CLOUDY    63  60  91 W12       29.99R
WADENA         PTSUNNY   66  57  72 N6        29.96R
DETROIT LAKES  CLOUDY    63  59  88 NW7       29.99S
MOORHEAD       CLOUDY    64  59  82 N10       30.00R
FERGUS FALLS   CLOUDY    63  63 100 NW9       29.98R
MORRIS MN      FAIR      66  59  77 N13G18    29.97R
STAPLES        CLOUDY    64  55  72 NW8       29.95R
$$
  *****  WEATHER ELSEWHERE ACROSS MINNESOTA  *****

CITY           SKY/WX    TMP DP  RH WIND       PRES   REMARKS
DULUTH         CLOUDY    56  56 100 NE6       29.92R FOG
INTRNTL FALLS  CLOUDY    64  57  78 E9        29.97R
ELY            CLOUDY    59  57  94 NE6       29.94R
CLOQUET        CLOUDY    57  55  94 NE6       29.92R
WHEATON        CLOUDY    63  59  88 NW10      30.01R
BRAINERD       CLOUDY    66  59  78 N10       29.93R
HIBBING        CLOUDY    60  57  89 N10       29.93R
ALEXANDRIA     PTSUNNY   66  59  78 NW9       29.97R
SAINT CLOUD    PTSUNNY   67  60  78 NW12      29.92R
MINNEAPOLIS    FAIR      72  56  57 N8        29.89S
$$

  *****  WEATHER ACROSS SOUTH DAKOTA  *****

CITY           SKY/WX    TMP DP  RH WIND       PRES   REMARKS
SIOUX FALLS    FAIR      72  62  71 NW10      30.00R
BROOKINGS      FAIR      68  60  75 N10       30.02R
WATERTOWN      FAIR      66  60  81 N15       30.01R
HURON          FAIR      68  61  78 N13       30.03R
SISSETON         N/A     66  61  84 N16       29.99R
ABERDEEN       FAIR      68  60  75 N10       30.04R
MITCHELL       FAIR      71  62  73 N7        30.02R
PIERRE         FAIR      69  55  60 NE3       30.06R
MOBRIDGE       FAIR      69  59  70 N7        30.06R
RAPID CITY     FAIR      72  46  39 CALM      30.13R
$$

  *****  SOME WEATHER IN NEARBY STATES *****

CITY           SKY/WX    TMP DP  RH WIND       PRES   REMARKS
GLASGOW MT     FAIR      67  47  48 MISG      30.02S
GREAT FALLS MT FAIR      71  41  33 SW3       30.07S
CHEYENNE WY    FAIR      67  51  56 W3        30.27R
SCOTTSBLUFF NE FAIR      68  53  58 E3        30.14R
OMAHA NE       FAIR      74  71  91 N5        29.98R FOG
DES MOINES IA  FAIR      79  71  76 NW8       29.91R
DAVENPORT IA     N/A     78  74  87 W7        29.88S
CHICAGO IL     PTSUNNY   81  72  74 W5        29.80F
EAU CLAIRE WI  PTSUNNY   68  60  75 NW6       29.84R
LA CROSSE WI   PTSUNNY   73  69  87 CALM      29.83F
$$

  *****  SOME NATIONAL WEATHER *****

CITY           SKY/WX    TMP DP  RH WIND       PRES   REMARKS
LA GUARDIA NY  PTSUNNY   77  70  79 NE5       29.79R
RALEIGH NC     PTSUNNY   88  76  67 SW14      29.89F HX  99
ATLANTA GA     FAIR      83  74  74 W7        29.99F
NEW ORLEANS LA PTSUNNY   82  76  81 SW8       29.99S
OKLAHOMA CITY  PTSUNNY   82  70  66 VRB5      29.95R
ALBUQUERQUE NM PTSUNNY   71  56  58 CALM      30.20R
SALT LAKE CITY PTSUNNY   76  50  40 SW3       30.08R
LOS ANGELES CA PTSUNNY   69  65  86 N5        29.88S
BOISE ID       FAIR      68  42  38 S6        30.03R
SEATTLE WA     CLOUDY    63  56  78 N13       30.09S
$$

*** WEATHER ACROSS MANITOBA...SASKATCHEWAN AND ONTARIO ***
                ***ONTARIO***

CITY           SKY/WX    TMP DP  RH WIND       PRES   REMARKS
GERALDTON      MOSUNNY   63  50  63 NE3       29.96R
THUNDER BAY    PTSUNNY   64  61  88 NE7       29.90R
SIOUX LOOKOUT  MOSUNNY   66  55  68 VRB2      29.98R
TORONTO        CLOUDY    72  66  83 E10       29.79S
BIG TROUT LK   SUNNY     63  48  59 S3        30.01S
PICKLE LAKE    MOSUNNY   68  46  45 E7        30.00S
DRYDEN         SUNNY     66  57  72 NE5       29.99R
KENORA         MOSUNNY   64  63  94 N5        30.01R
$$
                *** MANITOBA***

CITY           SKY/WX    TMP DP  RH WIND       PRES   REMARKS
BRANDON        MOSUNNY   63  59  88 W3        30.05R
DAUPHIN        SUNNY     66  61  82 SW6       30.01S
ISLAND LAKE    NOT AVBL
PILOT MOUND      N/A     61  57  88 NW3         N/A
THE PAS        CLOUDY    68  55  64 SW6       29.93S
THOMPSON       PTSUNNY   68  50  52 S2        29.89S
WINNIPEG       SUNNY     64  59  82 E5        30.01
LYNN LAKE      PTSUNNY   66  52  59 VRB2      29.82S
CHURCHILL      PTSUNNY   70  52  52 SW10      29.75F
GILLAM         PTSUNNY   72  48  43 SW8       29.88S
$$
                ***SASKATCHEWAN***

CITY           SKY/WX    TMP DP  RH WIND       PRES   REMARKS
ESTEVAN        MOSUNNY   64  57  77 NE9       30.06F
KINDERSLEY     MOSUNNY   64  54  68 S7        29.92S
LLOYDMINSTER   MOSUNNY   64  59  82 N5        29.91S
PRINCE ALBERT  PTSUNNY   63  59  88 S5        29.93F
REGINA         MOSUNNY   64  54  68 S8        30.02S
YORKTON        SUNNY     63  57  82 SW9       30.02S
N. BATTLEFORD  CLOUDY    64  57  77 S2        29.92S
LA RONGE       PTSUNNY   64  61  88 SE8       29.86F
SASKATOON      PTSUNNY   64  57  77 S7        29.94F
SWIFT CURRENT  PTSUNNY   68  52  56 S14G20    29.96F
$$
NOTE: THESE ARE AUTOMATED STATIONS WITH LIMITED QUALITY CONTROL
      "FAIR" INDICATES FEW OR NO CLOUDS BELOW 12,000 FEET WITH NO
      SIGNIFICANT WEATHER AND/OR OBSTRUCTIONS TO VISIBILITY.
      SKY/WX - SKY CONDITION AND SIGNIFICANT WEATHER.
      TMP - AIR TEMPERATURE.    DP   - DEWPOINT TEMPERATURE.
      RH  - RELATIVE HUMIDITY.  PRES - PRESSURE.
      HX  - HEAT INDEX.         WCI  - WIND CHILL INDEX.
$




USA.gov is the U.S. government's official web portal to all federal, state and local government web resources and services.